BAW23K EGKK-MKJP

Flight info

Callsign BAW23K
Flight time N/A
Altitude 36000
Route NOVM1X NOVMA L620 SAM N19 ADKIK DCT PEWBI DCT MOPAT DCT TOBOR/M081F360 DCT 53N020W 52N030W 51N040W 44N050W/M081F380 36N060W/M081F400 DCT BALOO DCT GECAL DCT DUPOX DCT LFANO M331 CANEE/N0462F400 M331 GHANN UL347 VIKRO/N0370F230 L347 MLY ELSER6
Aircraft B772/H-SDE2E3FGHIJ5LORVWXY/LB1D1

Departure

Time 2026-04-15 12:31
Airport London Gatwick Airport (EGKK)

Arrival

Time N/A
Airport Norman Manley International Airport (MKJP)
Time Latitude Longitude Altitude Speed Heading
2026-04-15 12:07 51.15584 -0.16908 209 ft 0 kts 167°
2026-04-15 12:18 51.15604 -0.16915 218 ft 4 kts 168°
2026-04-15 12:18 51.15630 -0.16923 220 ft 4 kts 170°
2026-04-15 12:19 51.15651 -0.16924 222 ft 4 kts 210°
2026-04-15 12:19 51.15663 -0.16902 219 ft 4 kts 255°
2026-04-15 12:19 51.15668 -0.16870 215 ft 4 kts 258°
2026-04-15 12:19 51.15672 -0.16838 211 ft 0 kts 257°
2026-04-15 12:24 51.15669 -0.16863 218 ft 7 kts 258°
2026-04-15 12:24 51.15657 -0.16948 215 ft 8 kts 258°
2026-04-15 12:24 51.15643 -0.17048 213 ft 10 kts 258°
2026-04-15 12:24 51.15628 -0.17158 215 ft 11 kts 257°
2026-04-15 12:25 51.15610 -0.17280 211 ft 11 kts 256°
2026-04-15 12:25 51.15589 -0.17401 219 ft 11 kts 245°
2026-04-15 12:25 51.15524 -0.17435 211 ft 11 kts 167°
2026-04-15 12:25 51.15452 -0.17409 213 ft 11 kts 167°
2026-04-15 12:26 51.15380 -0.17384 217 ft 11 kts 168°
2026-04-15 12:26 51.15313 -0.17361 217 ft 7 kts 168°
2026-04-15 12:26 51.15307 -0.17358 218 ft 0 kts 164°
2026-04-15 12:27 51.15305 -0.17358 222 ft 1 kts 165°
2026-04-15 12:27 51.15276 -0.17343 217 ft 6 kts 159°
2026-04-15 12:27 51.15238 -0.17311 221 ft 6 kts 148°
2026-04-15 12:27 51.15203 -0.17271 218 ft 6 kts 141°
2026-04-15 12:28 51.15184 -0.17212 218 ft 6 kts 97°
2026-04-15 12:28 51.15190 -0.17141 219 ft 7 kts 80°
2026-04-15 12:28 51.15201 -0.17056 218 ft 11 kts 77°
2026-04-15 12:28 51.15217 -0.16951 220 ft 7 kts 77°
2026-04-15 12:29 51.15217 -0.16949 220 ft 0 kts 77°
2026-04-15 12:29 51.15218 -0.16943 221 ft 5 kts 76°
2026-04-15 12:29 51.15226 -0.16868 217 ft 7 kts 91°
2026-04-15 12:30 51.15197 -0.16811 218 ft 7 kts 150°
2026-04-15 12:30 51.15151 -0.16809 220 ft 7 kts 200°
2026-04-15 12:30 51.15118 -0.16862 217 ft 7 kts 245°
2026-04-15 12:30 51.15099 -0.16967 223 ft 22 kts 256°
2026-04-15 12:31 51.15025 -0.17508 219 ft 83 kts 257°
2026-04-15 12:31 51.14849 -0.18771 213 ft 146 kts 257°
2026-04-15 12:31 51.14597 -0.20467 656 ft 157 kts 254°
2026-04-15 12:31 51.14411 -0.22286 1188 ft 172 kts 255°
2026-04-15 12:32 51.14154 -0.24157 1844 ft 183 kts 252°
2026-04-15 12:32 51.13842 -0.26249 2020 ft 203 kts 252°
2026-04-15 12:32 51.13518 -0.28482 2455 ft 210 kts 253°
2026-04-15 12:32 51.13349 -0.29669 2596 ft 219 kts 253°
2026-04-15 12:33 51.13012 -0.32078 3048 ft 228 kts 253°
2026-04-15 12:33 51.12668 -0.34561 3581 ft 234 kts 253°
2026-04-15 12:33 51.12312 -0.37116 3978 ft 240 kts 253°
2026-04-15 12:33 51.11946 -0.39745 3967 ft 242 kts 253°
2026-04-15 12:34 51.11585 -0.42344 3971 ft 237 kts 252°
2026-04-15 12:34 51.11053 -0.44679 3977 ft 233 kts 242°
2026-04-15 12:34 51.10330 -0.46970 3978 ft 235 kts 240°
2026-04-15 12:34 51.09571 -0.49268 3978 ft 235 kts 239°
2026-04-15 12:35 51.08828 -0.51589 3989 ft 235 kts 240°
2026-04-15 12:35 51.08377 -0.53019 3981 ft 235 kts 240°
2026-04-15 12:35 51.07876 -0.54603 3986 ft 236 kts 241°
2026-04-15 12:35 51.07140 -0.56943 3964 ft 235 kts 240°
2026-04-15 12:36 51.06414 -0.59255 3962 ft 234 kts 240°
2026-04-15 12:36 51.05706 -0.61505 3963 ft 232 kts 241°
2026-04-15 12:36 51.05144 -0.63902 3961 ft 232 kts 253°
2026-04-15 12:36 51.04818 -0.66428 3959 ft 235 kts 255°
2026-04-15 12:37 51.04507 -0.68990 3969 ft 237 kts 255°
2026-04-15 12:37 51.04189 -0.71534 3973 ft 238 kts 254°
2026-04-15 12:37 51.03966 -0.73273 3969 ft 239 kts 254°
2026-04-15 12:37 51.03647 -0.75747 3965 ft 239 kts 254°
2026-04-15 12:38 51.03408 -0.77554 4077 ft 239 kts 253°
2026-04-15 12:38 51.03064 -0.80137 4657 ft 240 kts 253°
2026-04-15 12:38 51.02717 -0.82725 5346 ft 238 kts 253°
2026-04-15 12:38 51.02367 -0.85311 5959 ft 242 kts 253°
2026-04-15 12:39 51.02012 -0.87918 6497 ft 247 kts 253°
2026-04-15 12:39 51.01643 -0.90641 7076 ft 249 kts 253°
2026-04-15 12:39 51.01332 -0.92875 7535 ft 250 kts 252°
2026-04-15 12:39 51.00930 -0.95571 8100 ft 253 kts 252°
2026-04-15 12:40 51.00524 -0.98282 8638 ft 254 kts 252°
2026-04-15 12:40 51.00182 -1.00688 9115 ft 256 kts 252°
2026-04-15 12:40 50.99800 -1.03458 9650 ft 259 kts 252°
2026-04-15 12:40 50.99452 -1.06005 10120 ft 261 kts 252°
2026-04-15 12:41 50.99057 -1.08868 10339 ft 274 kts 252°
2026-04-15 12:41 50.98638 -1.11879 10487 ft 292 kts 252°
2026-04-15 12:41 50.98184 -1.15137 10648 ft 311 kts 253°
2026-04-15 12:41 50.97716 -1.18535 11021 ft 322 kts 253°
2026-04-15 12:42 50.97237 -1.22004 11605 ft 329 kts 253°
2026-04-15 12:42 50.96775 -1.25353 12344 ft 332 kts 253°
2026-04-15 12:42 50.96281 -1.28927 13279 ft 332 kts 252°
2026-04-15 12:42 50.95813 -1.32274 14043 ft 335 kts 252°
2026-04-15 12:43 50.95310 -1.35897 14717 ft 340 kts 253°
2026-04-15 12:43 50.94831 -1.39591 15421 ft 344 kts 253°
2026-04-15 12:43 50.94361 -1.43319 16138 ft 347 kts 253°
2026-04-15 12:43 50.93893 -1.47038 16863 ft 350 kts 253°
2026-04-15 12:44 50.93450 -1.50546 17537 ft 353 kts 253°
2026-04-15 12:44 50.92968 -1.54333 18280 ft 356 kts 253°
2026-04-15 12:44 50.92469 -1.58233 18937 ft 359 kts 252°
2026-04-15 12:44 50.91973 -1.62091 19589 ft 362 kts 252°
2026-04-15 12:45 50.91467 -1.66001 20201 ft 366 kts 252°
2026-04-15 12:45 50.90973 -1.69808 20819 ft 369 kts 251°
2026-04-15 12:45 50.90494 -1.73474 21428 ft 372 kts 251°
2026-04-15 12:45 50.89972 -1.77506 22100 ft 375 kts 251°
2026-04-15 12:46 50.89447 -1.81562 22772 ft 378 kts 250°
2026-04-15 12:46 50.88909 -1.85675 23408 ft 381 kts 250°
2026-04-15 12:46 50.88374 -1.89733 23950 ft 385 kts 250°
2026-04-15 12:46 50.87884 -1.93459 24394 ft 387 kts 250°
2026-04-15 12:47 50.87604 -1.95585 24676 ft 388 kts 250°
2026-04-15 12:47 50.87044 -1.99820 25192 ft 391 kts 250°
2026-04-15 12:47 50.86482 -2.04064 25652 ft 393 kts 249°
2026-04-15 12:47 50.85921 -2.08309 26126 ft 396 kts 249°
2026-04-15 12:48 50.85356 -2.12578 26600 ft 398 kts 249°
2026-04-15 12:48 50.84814 -2.16653 27001 ft 401 kts 249°
2026-04-15 12:48 50.84219 -2.21116 27456 ft 404 kts 249°
2026-04-15 12:48 50.83633 -2.25495 27932 ft 407 kts 249°
2026-04-15 12:49 50.83060 -2.29768 28316 ft 410 kts 249°
2026-04-15 12:49 50.82461 -2.34229 28779 ft 412 kts 249°
2026-04-15 12:49 50.81862 -2.38686 29210 ft 415 kts 249°
2026-04-15 12:49 50.81286 -2.42950 29555 ft 417 kts 249°
2026-04-15 12:50 50.80686 -2.47461 29909 ft 421 kts 251°
2026-04-15 12:50 50.80424 -2.52059 30195 ft 436 kts 261°
2026-04-15 12:50 50.80611 -2.56902 30475 ft 447 kts 267°
2026-04-15 12:50 50.81179 -2.61800 30742 ft 460 kts 276°
2026-04-15 12:51 50.82157 -2.66594 30989 ft 467 kts 279°
2026-04-15 12:51 50.83150 -2.71038 31220 ft 470 kts 279°
2026-04-15 12:51 50.84265 -2.75905 31473 ft 472 kts 280°
2026-04-15 12:51 50.85380 -2.80780 31687 ft 474 kts 279°
2026-04-15 12:52 50.86497 -2.85727 31874 ft 476 kts 279°
2026-04-15 12:52 50.87313 -2.89392 32052 ft 476 kts 279°
2026-04-15 12:52 50.88398 -2.94326 32367 ft 475 kts 279°
2026-04-15 12:52 50.89427 -2.99044 32670 ft 473 kts 279°
2026-04-15 12:53 50.90492 -3.03959 33029 ft 472 kts 279°
2026-04-15 12:53 50.91550 -3.08859 33403 ft 471 kts 279°
2026-04-15 12:53 50.92594 -3.13719 33727 ft 470 kts 279°
2026-04-15 12:53 50.93645 -3.18628 34023 ft 469 kts 279°
2026-04-15 12:54 50.94691 -3.23516 34279 ft 468 kts 279°
2026-04-15 12:54 50.95733 -3.28390 34505 ft 468 kts 279°
2026-04-15 12:54 50.96774 -3.33278 34712 ft 468 kts 279°
2026-04-15 12:54 50.97796 -3.38090 34920 ft 467 kts 279°
2026-04-15 12:55 50.98831 -3.42967 35143 ft 467 kts 280°
2026-04-15 12:55 50.99852 -3.47791 35376 ft 466 kts 280°
2026-04-15 12:55 51.00879 -3.52658 35589 ft 466 kts 280°
2026-04-15 12:55 51.01856 -3.57304 35808 ft 466 kts 280°
2026-04-15 12:56 51.02909 -3.62318 35867 ft 468 kts 280°
2026-04-15 12:56 51.04963 -3.72131 35921 ft 467 kts 280°
2026-04-15 12:57 51.06992 -3.81859 35937 ft 464 kts 280°
2026-04-15 12:57 51.08974 -3.91416 35936 ft 464 kts 281°
2026-04-15 12:58 51.10987 -4.01186 35936 ft 465 kts 281°
2026-04-15 12:58 51.12997 -4.10978 35925 ft 465 kts 281°
2026-04-15 12:59 51.15998 -4.25685 35923 ft 466 kts 281°
2026-04-15 12:59 51.17980 -4.35457 35916 ft 466 kts 281°
2026-04-15 13:00 51.19965 -4.45299 35915 ft 466 kts 281°
2026-04-15 13:00 51.21941 -4.55148 35914 ft 467 kts 281°
2026-04-15 13:01 51.23912 -4.65016 35906 ft 467 kts 281°
2026-04-15 13:01 51.25872 -4.74881 35912 ft 467 kts 281°
2026-04-15 13:02 51.27811 -4.84689 35894 ft 466 kts 281°
2026-04-15 13:02 51.29248 -4.91999 35893 ft 466 kts 281°
2026-04-15 13:03 51.31165 -5.01897 35887 ft 464 kts 279°
2026-04-15 13:03 51.32359 -5.11865 35900 ft 458 kts 272°
2026-04-15 13:04 51.33298 -5.21939 35887 ft 458 kts 272°
2026-04-15 13:04 51.34239 -5.32020 35887 ft 459 kts 272°
2026-04-15 13:05 51.35198 -5.42127 35879 ft 459 kts 273°
2026-04-15 13:05 51.36157 -5.52229 35869 ft 459 kts 273°
2026-04-15 13:06 51.37102 -5.62265 35868 ft 459 kts 273°
2026-04-15 13:06 51.38042 -5.72367 35863 ft 459 kts 273°
2026-04-15 13:07 51.38974 -5.82468 35859 ft 459 kts 273°
2026-04-15 13:07 51.39896 -5.92573 35859 ft 458 kts 273°
2026-04-15 13:08 51.40810 -6.02675 35856 ft 458 kts 273°
2026-04-15 13:08 51.41709 -6.12728 35849 ft 458 kts 273°
2026-04-15 13:09 51.42604 -6.22833 35842 ft 458 kts 273°
2026-04-15 13:09 51.43490 -6.32937 35840 ft 458 kts 273°
2026-04-15 13:10 51.44368 -6.43044 35839 ft 458 kts 273°
2026-04-15 13:10 51.45234 -6.53106 35833 ft 458 kts 273°
2026-04-15 13:11 51.46092 -6.63215 35825 ft 458 kts 273°
2026-04-15 13:11 51.46942 -6.73334 35821 ft 458 kts 273°
2026-04-15 13:12 51.47782 -6.83437 35815 ft 457 kts 273°
2026-04-15 13:12 51.48615 -6.93546 35821 ft 457 kts 273°
2026-04-15 13:13 51.49436 -7.03618 35823 ft 460 kts 273°
2026-04-15 13:13 51.50552 -7.13848 35916 ft 470 kts 279°
2026-04-15 13:14 51.51378 -7.18912 36101 ft 470 kts 280°
2026-04-15 13:14 51.52221 -7.23976 36308 ft 468 kts 280°
2026-04-15 13:14 51.53063 -7.29030 36516 ft 467 kts 280°
2026-04-15 13:14 51.53893 -7.34059 36694 ft 467 kts 280°
2026-04-15 13:15 51.54709 -7.39048 36839 ft 467 kts 279°
2026-04-15 13:15 51.55522 -7.44082 37005 ft 467 kts 279°
2026-04-15 13:15 51.56332 -7.49138 37155 ft 467 kts 279°
2026-04-15 13:15 51.57139 -7.54200 37319 ft 467 kts 279°
2026-04-15 13:16 51.57941 -7.59248 37455 ft 467 kts 279°
2026-04-15 13:16 51.58743 -7.64309 37598 ft 466 kts 279°
2026-04-15 13:16 51.59541 -7.69365 37702 ft 467 kts 279°
2026-04-15 13:16 51.60330 -7.74378 37745 ft 468 kts 279°
2026-04-15 13:17 51.61909 -7.84465 37768 ft 469 kts 279°
2026-04-15 13:17 51.63496 -7.94630 37764 ft 468 kts 279°
2026-04-15 13:18 51.65037 -8.04585 37757 ft 467 kts 279°
2026-04-15 13:18 51.66593 -8.14702 37745 ft 467 kts 279°
2026-04-15 13:19 51.68132 -8.24758 37743 ft 466 kts 279°
2026-04-15 13:19 51.69661 -8.34815 37731 ft 466 kts 279°
2026-04-15 13:20 51.71193 -8.44968 37734 ft 466 kts 279°
2026-04-15 13:20 51.72714 -8.55103 37725 ft 466 kts 279°
2026-04-15 13:21 51.74221 -8.65200 37732 ft 466 kts 278°
2026-04-15 13:21 51.75726 -8.75364 37728 ft 466 kts 279°
2026-04-15 13:22 51.77223 -8.85524 37729 ft 466 kts 278°
2026-04-15 13:22 51.78711 -8.95706 37740 ft 466 kts 278°
2026-04-15 13:23 51.79944 -9.04192 37731 ft 466 kts 278°
2026-04-15 13:23 51.81649 -9.15998 37727 ft 465 kts 278°
2026-04-15 13:24 51.83112 -9.26193 37736 ft 465 kts 278°
2026-04-15 13:24 51.84317 -9.34651 37728 ft 465 kts 278°
2026-04-15 13:25 51.85761 -9.44842 37729 ft 465 kts 278°
2026-04-15 13:25 51.87428 -9.56703 37717 ft 465 kts 278°
2026-04-15 13:26 51.88852 -9.66915 37702 ft 465 kts 278°
2026-04-15 13:26 51.90029 -9.75411 37702 ft 465 kts 278°
2026-04-15 13:27 51.91436 -9.85617 37711 ft 465 kts 278°
2026-04-15 13:27 51.92836 -9.95837 37702 ft 464 kts 278°
2026-04-15 13:28 51.94223 -10.06043 37705 ft 464 kts 278°
2026-04-15 13:28 51.95592 -10.16187 37694 ft 464 kts 278°
2026-04-15 13:29 51.96961 -10.26395 37693 ft 463 kts 278°
2026-04-15 13:29 51.98320 -10.36604 37683 ft 463 kts 278°
2026-04-15 13:30 51.99671 -10.46835 37682 ft 463 kts 278°
2026-04-15 13:30 52.01002 -10.56982 37676 ft 463 kts 278°
2026-04-15 13:31 52.02331 -10.67199 37671 ft 463 kts 278°
2026-04-15 13:31 52.03653 -10.77415 37665 ft 462 kts 278°
2026-04-15 13:32 52.04964 -10.87630 37660 ft 462 kts 278°
2026-04-15 13:32 52.06260 -10.97789 37662 ft 461 kts 278°
2026-04-15 13:33 52.07551 -11.07996 37645 ft 461 kts 278°
2026-04-15 13:33 52.08832 -11.18202 37643 ft 461 kts 278°
2026-04-15 13:34 52.10107 -11.28432 37642 ft 461 kts 278°
2026-04-15 13:34 52.11370 -11.38645 37642 ft 461 kts 278°
2026-04-15 13:35 52.12615 -11.48791 37632 ft 460 kts 278°
2026-04-15 13:35 52.13860 -11.59008 37630 ft 460 kts 278°
2026-04-15 13:36 52.15095 -11.69227 37627 ft 460 kts 277°
2026-04-15 13:36 52.16322 -11.79466 37623 ft 460 kts 277°
2026-04-15 13:37 52.17531 -11.89621 37618 ft 459 kts 277°
2026-04-15 13:37 52.18738 -11.99835 37612 ft 459 kts 277°
2026-04-15 13:38 52.19935 -12.10052 37607 ft 459 kts 277°
2026-04-15 13:38 52.21127 -12.20289 37599 ft 459 kts 277°
2026-04-15 13:39 52.22296 -12.30440 37600 ft 458 kts 277°
2026-04-15 13:39 52.23465 -12.40659 37590 ft 458 kts 277°
2026-04-15 13:40 52.24627 -12.50869 37590 ft 458 kts 277°
2026-04-15 13:40 52.25775 -12.61085 37583 ft 457 kts 277°
2026-04-15 13:41 52.26912 -12.71278 37571 ft 457 kts 277°
2026-04-15 13:41 52.28035 -12.81418 37570 ft 456 kts 277°
2026-04-15 13:42 52.29153 -12.91604 37562 ft 456 kts 277°
2026-04-15 13:42 52.30263 -13.01787 37571 ft 455 kts 277°
2026-04-15 13:43 52.31364 -13.11974 37556 ft 455 kts 277°
2026-04-15 13:43 52.32454 -13.22169 37553 ft 455 kts 277°
2026-04-15 13:44 52.33527 -13.32278 37547 ft 454 kts 277°
2026-04-15 13:44 52.34598 -13.42455 37548 ft 454 kts 277°
2026-04-15 13:45 52.35660 -13.52637 37542 ft 454 kts 277°
2026-04-15 13:47 52.39815 -13.93328 37523 ft 454 kts 276°
2026-04-15 13:47 52.40832 -14.03529 37517 ft 454 kts 276°
2026-04-15 13:48 52.41837 -14.13678 37507 ft 454 kts 276°
2026-04-15 13:48 52.42836 -14.23879 37516 ft 454 kts 276°
2026-04-15 13:49 52.43826 -14.34080 37496 ft 454 kts 276°
2026-04-15 13:49 52.44807 -14.44282 37500 ft 453 kts 276°
2026-04-15 13:50 52.45774 -14.54428 37497 ft 453 kts 276°
2026-04-15 13:50 52.46737 -14.64622 37495 ft 453 kts 276°
2026-04-15 13:51 52.47689 -14.74823 37485 ft 453 kts 276°
2026-04-15 13:51 52.48634 -14.85030 37487 ft 453 kts 276°
2026-04-15 13:52 52.49572 -14.95261 37481 ft 453 kts 276°
2026-04-15 13:52 52.50555 -15.05396 37476 ft 453 kts 278°
2026-04-15 13:53 52.51806 -15.15537 37478 ft 454 kts 279°
2026-04-15 13:53 52.53089 -15.25673 37473 ft 453 kts 279°
2026-04-15 13:54 52.54331 -15.35820 37471 ft 453 kts 279°
2026-04-15 13:54 52.55534 -15.45923 37466 ft 453 kts 278°
2026-04-15 13:55 52.56728 -15.56079 37466 ft 453 kts 278°
2026-04-15 13:55 52.57913 -15.66236 37457 ft 452 kts 278°
2026-04-15 13:56 52.59087 -15.76393 37458 ft 452 kts 278°
2026-04-15 13:56 52.60252 -15.86498 37453 ft 452 kts 278°
2026-04-15 13:57 52.61411 -15.96653 37453 ft 452 kts 278°
2026-04-15 13:57 52.62559 -16.06809 37451 ft 452 kts 278°
2026-04-15 13:58 52.63700 -16.16970 37446 ft 452 kts 278°
2026-04-15 13:58 52.64826 -16.27083 37443 ft 451 kts 278°
2026-04-15 13:59 52.65948 -16.37249 37443 ft 451 kts 278°
2026-04-15 13:59 52.67060 -16.47412 37442 ft 451 kts 278°
2026-04-15 14:00 52.68164 -16.57569 37441 ft 450 kts 278°
2026-04-15 14:00 52.69261 -16.67749 37431 ft 451 kts 278°
2026-04-15 14:01 52.70879 -16.82937 37426 ft 451 kts 278°
2026-04-15 14:02 52.71955 -16.93138 37438 ft 451 kts 278°
2026-04-15 14:02 52.73018 -17.03321 37440 ft 450 kts 278°
2026-04-15 14:03 52.74065 -17.13435 37446 ft 450 kts 278°
2026-04-15 14:03 52.75112 -17.23621 37440 ft 450 kts 278°
2026-04-15 14:04 52.76149 -17.33813 37437 ft 450 kts 278°
2026-04-15 14:04 52.77180 -17.44028 37429 ft 450 kts 278°
2026-04-15 14:05 52.78194 -17.54158 37435 ft 450 kts 278°
2026-04-15 14:05 52.79203 -17.64357 37448 ft 450 kts 277°
2026-04-15 14:06 52.80172 -17.74253 37453 ft 450 kts 277°
2026-04-15 14:06 52.81167 -17.84454 37454 ft 450 kts 277°
2026-04-15 14:07 52.82153 -17.94654 37444 ft 449 kts 277°
2026-04-15 14:07 52.83120 -18.04791 37461 ft 449 kts 277°
2026-04-15 14:08 52.84086 -18.15004 37463 ft 449 kts 277°
2026-04-15 14:08 52.85041 -18.25200 37455 ft 449 kts 277°
2026-04-15 14:09 52.85988 -18.35394 37466 ft 448 kts 277°
2026-04-15 14:09 52.86918 -18.45521 37469 ft 448 kts 277°
2026-04-15 14:10 52.87847 -18.55732 37471 ft 448 kts 277°
2026-04-15 14:10 52.88766 -18.65926 37480 ft 448 kts 277°
2026-04-15 14:11 52.89670 -18.76051 37477 ft 447 kts 277°
2026-04-15 14:11 52.90569 -18.86244 37471 ft 447 kts 277°
2026-04-15 14:12 52.91463 -18.96458 37476 ft 447 kts 277°
2026-04-15 14:12 52.92346 -19.06661 37482 ft 448 kts 277°
2026-04-15 14:13 52.93215 -19.16804 37481 ft 448 kts 277°
2026-04-15 14:13 52.94080 -19.27018 37482 ft 448 kts 277°
2026-04-15 14:14 52.94939 -19.37252 37485 ft 448 kts 277°
2026-04-15 14:14 52.95789 -19.47479 37487 ft 448 kts 277°
2026-04-15 14:15 52.96628 -19.57710 37485 ft 448 kts 277°
2026-04-15 14:15 52.97454 -19.67873 37486 ft 448 kts 277°
2026-04-15 14:16 52.98274 -19.78108 37488 ft 448 kts 276°
2026-04-15 14:16 52.99090 -19.88372 37489 ft 448 kts 276°
2026-04-15 14:17 52.99772 -19.98638 37489 ft 447 kts 272°
2026-04-15 14:17 52.99561 -20.08865 37493 ft 447 kts 265°
2026-04-15 14:18 52.98944 -20.19119 37490 ft 447 kts 264°
2026-04-15 14:18 52.98319 -20.29385 37498 ft 446 kts 264°
2026-04-15 14:19 52.97707 -20.39561 37496 ft 446 kts 264°
2026-04-15 14:19 52.97090 -20.49797 37498 ft 446 kts 264°
2026-04-15 14:20 52.96471 -20.60033 37496 ft 446 kts 264°
2026-04-15 14:20 52.95838 -20.70277 37501 ft 446 kts 264°
2026-04-15 14:21 52.95196 -20.80499 37513 ft 445 kts 264°
2026-04-15 14:21 52.94553 -20.90633 37518 ft 445 kts 264°
2026-04-15 14:22 52.93898 -21.00829 37507 ft 445 kts 264°
2026-04-15 14:22 52.93232 -21.11033 37503 ft 445 kts 264°
2026-04-15 14:23 52.92559 -21.21199 37519 ft 444 kts 264°
2026-04-15 14:23 52.91881 -21.31314 37514 ft 444 kts 264°
2026-04-15 14:24 52.91192 -21.41481 37516 ft 444 kts 264°
2026-04-15 14:24 52.90492 -21.51640 37505 ft 444 kts 264°
2026-04-15 14:25 52.89789 -21.61740 37505 ft 444 kts 264°
2026-04-15 14:25 52.89073 -21.71882 37524 ft 444 kts 264°
2026-04-15 14:26 52.88350 -21.82017 37518 ft 443 kts 264°
2026-04-15 14:26 52.87619 -21.92148 37511 ft 443 kts 264°
2026-04-15 14:27 52.86881 -22.02228 37529 ft 444 kts 264°
2026-04-15 14:27 52.86131 -22.12356 37530 ft 444 kts 264°
2026-04-15 14:28 52.85374 -22.22476 37529 ft 443 kts 263°
2026-04-15 14:28 52.84610 -22.32586 37526 ft 443 kts 263°
2026-04-15 14:29 52.83838 -22.42619 37537 ft 443 kts 263°
2026-04-15 14:29 52.83057 -22.52730 37530 ft 442 kts 263°
2026-04-15 14:30 52.82267 -22.62808 37533 ft 442 kts 263°
2026-04-15 14:30 52.81469 -22.72872 37529 ft 441 kts 263°
2026-04-15 14:31 52.80669 -22.82855 37540 ft 441 kts 263°
2026-04-15 14:31 52.79854 -22.92910 37529 ft 441 kts 263°
2026-04-15 14:32 52.79034 -23.02934 37534 ft 440 kts 263°
2026-04-15 14:32 52.78206 -23.12947 37535 ft 440 kts 263°
2026-04-15 14:33 52.77374 -23.22887 37543 ft 440 kts 263°
2026-04-15 14:33 52.76528 -23.32907 37532 ft 440 kts 263°
2026-04-15 14:34 52.75674 -23.42906 37544 ft 440 kts 262°
2026-04-15 14:34 52.74812 -23.52898 37538 ft 440 kts 262°
2026-04-15 14:35 52.73948 -23.62816 37536 ft 440 kts 262°
2026-04-15 14:35 52.73069 -23.72812 37549 ft 440 kts 262°
2026-04-15 14:36 52.72182 -23.82791 37543 ft 440 kts 262°
2026-04-15 14:36 52.71288 -23.92772 37546 ft 440 kts 262°
2026-04-15 14:37 52.70383 -24.02749 37545 ft 440 kts 262°
2026-04-15 14:37 52.69477 -24.12656 37542 ft 440 kts 262°
2026-04-15 14:38 52.68556 -24.22641 37546 ft 440 kts 262°
2026-04-15 14:38 52.67625 -24.32614 37548 ft 440 kts 262°
2026-04-15 14:39 52.66694 -24.42512 37542 ft 440 kts 262°
2026-04-15 14:39 52.65748 -24.52470 37546 ft 440 kts 262°
2026-04-15 14:40 52.64794 -24.62429 37542 ft 440 kts 262°
2026-04-15 14:40 52.63829 -24.72404 37551 ft 441 kts 261°
2026-04-15 14:41 52.62862 -24.82297 37553 ft 441 kts 261°
2026-04-15 14:41 52.61882 -24.92254 37550 ft 441 kts 261°
2026-04-15 14:42 52.60892 -25.02209 37546 ft 441 kts 261°
2026-04-15 14:42 52.59892 -25.12178 37551 ft 441 kts 261°
2026-04-15 14:43 52.58893 -25.22061 37550 ft 441 kts 261°
2026-04-15 14:43 52.57877 -25.32009 37555 ft 441 kts 261°
2026-04-15 14:44 52.56853 -25.41956 37551 ft 442 kts 261°
2026-04-15 14:44 52.55821 -25.51901 37558 ft 442 kts 261°
2026-04-15 14:45 52.54780 -25.61853 37557 ft 442 kts 261°
2026-04-15 14:45 52.53738 -25.71724 37560 ft 441 kts 261°
2026-04-15 14:46 52.52680 -25.81666 37562 ft 442 kts 260°
2026-04-15 14:46 52.51614 -25.91594 37560 ft 442 kts 260°
2026-04-15 14:47 52.50540 -26.01517 37562 ft 442 kts 260°
2026-04-15 14:47 52.49463 -26.11386 37568 ft 442 kts 260°
2026-04-15 14:48 52.48372 -26.21307 37569 ft 442 kts 260°
2026-04-15 14:48 52.47271 -26.31232 37574 ft 442 kts 260°
2026-04-15 14:49 52.46162 -26.41147 37573 ft 442 kts 260°
2026-04-15 14:49 52.45051 -26.50999 37577 ft 443 kts 259°
2026-04-15 14:50 52.43924 -26.60921 37580 ft 443 kts 259°
2026-04-15 14:50 52.42786 -26.70863 37584 ft 444 kts 259°
2026-04-15 14:51 52.41641 -26.80792 37583 ft 444 kts 259°
2026-04-15 14:51 52.40494 -26.90657 37585 ft 444 kts 259°
2026-04-15 14:52 52.39330 -27.00589 37589 ft 444 kts 259°
2026-04-15 14:52 52.38155 -27.10538 37589 ft 445 kts 259°
2026-04-15 14:53 52.36975 -27.20469 37591 ft 445 kts 259°
2026-04-15 14:53 52.35792 -27.30341 37593 ft 445 kts 259°
2026-04-15 14:54 52.34590 -27.40298 37594 ft 446 kts 259°
2026-04-15 14:54 52.33380 -27.50238 37594 ft 446 kts 259°
2026-04-15 14:55 52.32160 -27.60180 37598 ft 447 kts 258°
2026-04-15 14:55 52.30941 -27.70055 37600 ft 446 kts 258°
2026-04-15 14:56 52.29705 -27.80004 37601 ft 446 kts 258°
2026-04-15 14:56 52.28459 -27.89940 37604 ft 447 kts 258°
2026-04-15 14:57 52.27204 -27.99879 37607 ft 447 kts 258°
2026-04-15 14:57 52.25938 -28.09824 37606 ft 448 kts 258°
2026-04-15 14:58 52.24674 -28.19704 37608 ft 448 kts 258°
2026-04-15 14:58 52.23389 -28.29668 37608 ft 448 kts 258°
2026-04-15 14:59 52.22099 -28.39616 37613 ft 449 kts 258°
2026-04-15 14:59 52.20806 -28.49494 37614 ft 449 kts 258°
2026-04-15 15:00 52.19495 -28.59437 37622 ft 449 kts 258°
2026-04-15 15:00 52.18174 -28.69396 37621 ft 449 kts 258°
2026-04-15 15:01 52.16848 -28.79337 37622 ft 449 kts 257°
2026-04-15 15:01 52.15520 -28.89211 37621 ft 449 kts 257°
2026-04-15 15:02 52.14175 -28.99147 37618 ft 450 kts 257°
2026-04-15 15:02 52.12819 -29.09102 37627 ft 450 kts 257°
2026-04-15 15:03 52.11456 -29.19041 37628 ft 450 kts 257°
2026-04-15 15:03 52.10092 -29.28912 37625 ft 451 kts 257°
2026-04-15 15:04 52.08708 -29.38851 37631 ft 451 kts 257°
2026-04-15 15:04 52.07316 -29.48784 37630 ft 451 kts 257°
2026-04-15 15:05 52.05915 -29.58729 37633 ft 451 kts 257°
2026-04-15 15:05 52.04518 -29.68593 37629 ft 451 kts 257°
2026-04-15 15:06 52.02385 -29.83503 37628 ft 452 kts 257°
2026-04-15 15:06 52.00955 -29.93423 37636 ft 452 kts 257°
2026-04-15 15:07 51.99743 -30.03453 37639 ft 453 kts 264°
2026-04-15 15:07 51.99185 -30.13559 37635 ft 453 kts 264°
2026-04-15 15:08 51.98634 -30.23741 37636 ft 454 kts 264°
2026-04-15 15:08 51.98055 -30.33946 37635 ft 454 kts 264°
2026-04-15 15:09 51.97453 -30.44133 37638 ft 454 kts 264°
2026-04-15 15:09 51.96844 -30.54266 37633 ft 455 kts 264°
2026-04-15 15:10 51.96220 -30.64491 37639 ft 455 kts 264°
2026-04-15 15:10 51.95588 -30.74703 37638 ft 456 kts 263°
2026-04-15 15:11 51.94946 -30.84921 37638 ft 456 kts 263°
2026-04-15 15:11 51.94300 -30.95082 37639 ft 456 kts 263°
2026-04-15 15:12 51.93640 -31.05311 37641 ft 457 kts 263°
2026-04-15 15:12 51.92969 -31.15557 37640 ft 457 kts 263°
2026-04-15 15:13 51.92295 -31.25727 37643 ft 457 kts 263°
2026-04-15 15:13 51.91607 -31.35956 37645 ft 457 kts 263°
2026-04-15 15:14 51.90909 -31.46185 37643 ft 457 kts 263°
2026-04-15 15:14 51.90204 -31.56419 37645 ft 458 kts 263°
2026-04-15 15:15 51.89494 -31.66603 37649 ft 458 kts 263°
2026-04-15 15:15 51.88769 -31.76838 37652 ft 458 kts 263°
2026-04-15 15:16 51.88036 -31.87076 37651 ft 458 kts 263°
2026-04-15 15:16 51.87294 -31.97315 37654 ft 458 kts 263°
2026-04-15 15:17 51.86547 -32.07507 37655 ft 459 kts 263°
2026-04-15 15:17 51.85785 -32.17750 37655 ft 459 kts 263°
2026-04-15 15:18 51.85015 -32.27997 37657 ft 459 kts 263°
2026-04-15 15:18 51.84234 -32.38250 37658 ft 460 kts 262°
2026-04-15 15:19 51.83447 -32.48464 37658 ft 460 kts 262°
2026-04-15 15:19 51.82649 -32.58734 37661 ft 461 kts 262°
2026-04-15 15:20 51.81839 -32.69003 37662 ft 461 kts 262°
2026-04-15 15:20 51.81021 -32.79275 37664 ft 461 kts 262°
2026-04-15 15:21 51.80191 -32.89568 37673 ft 462 kts 262°
2026-04-15 15:21 51.79359 -32.99776 37665 ft 462 kts 262°
2026-04-15 15:22 51.78512 -33.10054 37670 ft 462 kts 262°
2026-04-15 15:22 51.77655 -33.20336 37679 ft 462 kts 262°
2026-04-15 15:23 51.76791 -33.30616 37679 ft 462 kts 262°
2026-04-15 15:23 51.75921 -33.40846 37680 ft 463 kts 262°
2026-04-15 15:24 51.75037 -33.51128 37681 ft 463 kts 262°
2026-04-15 15:24 51.74144 -33.61416 37685 ft 463 kts 262°
2026-04-15 15:25 51.73240 -33.71708 37681 ft 464 kts 262°
2026-04-15 15:25 51.72332 -33.81947 37682 ft 464 kts 262°
2026-04-15 15:26 51.71411 -33.92238 37691 ft 464 kts 262°
2026-04-15 15:26 51.70478 -34.02528 37692 ft 464 kts 261°
2026-04-15 15:27 51.69537 -34.12821 37696 ft 465 kts 261°
2026-04-15 15:27 51.68592 -34.23048 37692 ft 465 kts 261°
2026-04-15 15:28 51.67631 -34.33359 37696 ft 465 kts 261°
2026-04-15 15:28 51.66661 -34.43652 37696 ft 465 kts 261°
2026-04-15 15:29 51.65683 -34.53943 37703 ft 465 kts 261°
2026-04-15 15:29 51.64702 -34.64163 37709 ft 465 kts 261°
2026-04-15 15:30 51.63703 -34.74470 37703 ft 466 kts 261°
2026-04-15 15:30 51.62696 -34.84761 37714 ft 466 kts 261°
2026-04-15 15:31 51.61680 -34.95049 37703 ft 466 kts 261°
2026-04-15 15:31 51.60663 -35.05265 37712 ft 466 kts 261°
2026-04-15 15:32 51.59626 -35.15562 37709 ft 466 kts 261°
2026-04-15 15:32 51.58584 -35.25833 37712 ft 466 kts 261°
2026-04-15 15:33 51.57534 -35.36100 37720 ft 466 kts 261°
2026-04-15 15:33 51.56480 -35.46304 37724 ft 466 kts 261°
2026-04-15 15:34 51.55410 -35.56567 37726 ft 466 kts 261°
2026-04-15 15:34 51.54329 -35.66831 37730 ft 466 kts 261°
2026-04-15 15:35 51.53237 -35.77108 37734 ft 466 kts 261°
2026-04-15 15:35 51.52148 -35.87296 37732 ft 466 kts 261°
2026-04-15 15:36 51.51041 -35.97544 37740 ft 466 kts 261°
2026-04-15 15:36 51.49925 -36.07788 37750 ft 466 kts 260°
2026-04-15 15:37 51.48799 -36.18046 37743 ft 466 kts 260°
2026-04-15 15:37 51.47674 -36.28213 37749 ft 466 kts 260°
2026-04-15 15:38 51.46532 -36.38443 37755 ft 466 kts 260°
2026-04-15 15:38 51.45384 -36.48668 37757 ft 466 kts 260°
2026-04-15 15:39 51.44220 -36.58910 37759 ft 466 kts 260°
2026-04-15 15:39 51.43057 -36.69066 37760 ft 467 kts 260°
2026-04-15 15:40 51.41877 -36.79289 37765 ft 467 kts 260°
2026-04-15 15:40 51.40689 -36.89504 37767 ft 467 kts 260°
2026-04-15 15:41 51.39492 -36.99710 37771 ft 466 kts 260°
2026-04-15 15:41 51.38295 -37.09853 37782 ft 466 kts 260°
2026-04-15 15:42 51.37085 -37.20036 37782 ft 466 kts 260°
2026-04-15 15:42 51.35864 -37.30214 37785 ft 466 kts 260°
2026-04-15 15:43 51.34632 -37.40383 37795 ft 466 kts 260°
2026-04-15 15:43 51.33401 -37.50501 37793 ft 466 kts 260°
2026-04-15 15:44 51.32153 -37.60669 37796 ft 466 kts 260°
2026-04-15 15:44 51.30894 -37.70830 37811 ft 466 kts 259°
2026-04-15 15:45 51.29629 -37.80985 37809 ft 466 kts 259°
2026-04-15 15:45 51.28360 -37.91081 37812 ft 466 kts 259°
2026-04-15 15:46 51.27078 -38.01221 37810 ft 466 kts 260°
2026-04-15 15:46 51.25787 -38.11353 37813 ft 466 kts 259°
2026-04-15 15:47 51.24487 -38.21478 37820 ft 466 kts 259°
2026-04-15 15:47 51.23176 -38.31613 37825 ft 466 kts 259°
2026-04-15 15:48 51.21867 -38.41661 37827 ft 466 kts 259°
2026-04-15 15:48 51.20541 -38.51777 37830 ft 466 kts 259°
2026-04-15 15:49 51.19208 -38.61878 37836 ft 466 kts 259°
2026-04-15 15:49 51.17874 -38.71909 37838 ft 466 kts 259°
2026-04-15 15:50 51.16519 -38.82003 37841 ft 466 kts 259°
2026-04-15 15:50 51.15155 -38.92111 37845 ft 466 kts 259°
2026-04-15 15:51 51.13785 -39.02201 37851 ft 466 kts 259°
2026-04-15 15:51 51.12414 -39.12217 37856 ft 466 kts 259°
2026-04-15 15:52 51.11025 -39.22292 37857 ft 466 kts 259°
2026-04-15 15:52 51.09628 -39.32382 37863 ft 466 kts 259°
2026-04-15 15:53 51.08222 -39.42454 37863 ft 467 kts 259°
2026-04-15 15:53 51.06815 -39.52459 37867 ft 467 kts 259°
2026-04-15 15:54 51.05389 -39.62524 37870 ft 467 kts 259°
2026-04-15 15:54 51.03956 -39.72581 37870 ft 467 kts 259°
2026-04-15 15:55 51.02513 -39.82644 37873 ft 466 kts 259°
2026-04-15 15:55 51.01054 -39.92604 37873 ft 467 kts 256°
2026-04-15 15:56 50.98385 -40.02022 37890 ft 472 kts 241°
2026-04-15 15:56 50.94326 -40.10248 37888 ft 476 kts 231°
2026-04-15 15:57 50.89823 -40.17944 37903 ft 477 kts 230°
2026-04-15 15:57 50.85298 -40.25634 37904 ft 477 kts 231°
2026-04-15 15:58 50.80837 -40.33291 37899 ft 477 kts 231°
2026-04-15 15:58 50.76358 -40.41011 37900 ft 477 kts 231°
2026-04-15 15:59 50.71878 -40.48724 37897 ft 477 kts 231°
2026-04-15 15:59 50.67421 -40.56370 37903 ft 477 kts 231°
2026-04-15 16:00 50.62920 -40.64062 37904 ft 477 kts 231°
2026-04-15 16:00 50.58424 -40.71729 37901 ft 477 kts 231°
2026-04-15 16:01 50.53924 -40.79378 37915 ft 477 kts 231°
2026-04-15 16:01 50.49447 -40.86958 37917 ft 476 kts 231°
2026-04-15 16:02 50.44931 -40.94586 37919 ft 476 kts 231°
2026-04-15 16:02 50.40421 -41.02183 37923 ft 476 kts 231°
2026-04-15 16:03 50.35905 -41.09763 37926 ft 476 kts 231°
2026-04-15 16:03 50.31386 -41.17326 37925 ft 476 kts 231°
2026-04-15 16:04 50.26891 -41.24830 37932 ft 475 kts 231°
2026-04-15 16:04 50.22373 -41.32347 37927 ft 474 kts 231°
2026-04-15 16:05 50.17861 -41.39836 37931 ft 473 kts 231°
2026-04-15 16:05 50.13349 -41.47297 37933 ft 473 kts 231°
2026-04-15 16:06 50.08867 -41.54686 37941 ft 472 kts 231°
2026-04-15 16:06 50.04351 -41.62112 37945 ft 471 kts 231°
2026-04-15 16:07 49.99846 -41.69498 37948 ft 470 kts 231°
2026-04-15 16:08 49.93121 -41.80490 37956 ft 470 kts 231°
2026-04-15 16:08 49.88619 -41.87817 37956 ft 469 kts 230°
2026-04-15 16:09 49.84119 -41.95121 37960 ft 468 kts 230°
2026-04-15 16:09 49.79617 -42.02402 37962 ft 468 kts 230°
2026-04-15 16:10 49.75140 -42.09630 37964 ft 467 kts 230°
2026-04-15 16:10 49.70641 -42.16873 37970 ft 467 kts 230°
2026-04-15 16:11 49.66137 -42.24099 37968 ft 467 kts 230°
2026-04-15 16:11 49.61632 -42.31309 37990 ft 467 kts 230°
2026-04-15 16:12 49.57149 -42.38464 37985 ft 466 kts 230°
2026-04-15 16:12 49.52639 -42.45634 37984 ft 466 kts 230°
2026-04-15 16:13 49.48132 -42.52785 37981 ft 465 kts 230°
2026-04-15 16:13 49.43626 -42.59916 37981 ft 465 kts 230°
2026-04-15 16:14 49.39118 -42.67027 37985 ft 464 kts 230°
2026-04-15 16:14 49.34634 -42.74081 37989 ft 464 kts 230°
2026-04-15 16:15 49.30126 -42.81153 37992 ft 464 kts 230°
2026-04-15 16:15 49.25618 -42.88215 38001 ft 464 kts 230°
2026-04-15 16:16 49.21105 -42.95257 37999 ft 463 kts 230°
2026-04-15 16:16 49.16620 -43.02235 38005 ft 463 kts 230°
2026-04-15 16:17 49.12094 -43.09256 38006 ft 463 kts 230°
2026-04-15 16:17 49.08873 -43.14242 38007 ft 463 kts 230°
2026-04-15 16:18 49.04384 -43.21171 38009 ft 462 kts 230°
2026-04-15 16:18 48.99869 -43.28125 38013 ft 461 kts 230°
2026-04-15 16:19 48.95355 -43.35059 38016 ft 461 kts 230°
2026-04-15 16:19 48.90834 -43.41983 38020 ft 460 kts 230°
2026-04-15 16:20 48.86324 -43.48872 38019 ft 460 kts 230°
2026-04-15 16:20 48.81846 -43.55695 38013 ft 459 kts 230°
2026-04-15 16:21 48.77335 -43.62548 38034 ft 459 kts 230°
2026-04-15 16:21 48.72823 -43.69385 38030 ft 459 kts 230°
2026-04-15 16:22 48.68303 -43.76215 38033 ft 458 kts 230°
2026-04-15 16:22 48.63822 -43.82968 38040 ft 458 kts 230°
2026-04-15 16:23 48.59312 -43.89749 38039 ft 457 kts 230°
2026-04-15 16:23 48.54801 -43.96512 38037 ft 457 kts 230°
2026-04-15 16:24 48.50282 -44.03268 38048 ft 457 kts 230°
2026-04-15 16:24 48.45800 -44.09951 38049 ft 456 kts 230°
2026-04-15 16:25 48.41289 -44.16661 38050 ft 456 kts 230°
2026-04-15 16:25 48.36773 -44.23360 38059 ft 455 kts 230°
2026-04-15 16:26 48.32261 -44.30035 38059 ft 455 kts 230°
2026-04-15 16:26 48.27779 -44.36649 38064 ft 455 kts 230°
2026-04-15 16:27 48.23262 -44.43297 38065 ft 455 kts 230°
2026-04-15 16:27 48.18738 -44.49937 38073 ft 454 kts 230°
2026-04-15 16:28 48.14224 -44.56546 38072 ft 454 kts 230°
2026-04-15 16:28 48.09740 -44.63089 38076 ft 453 kts 230°
2026-04-15 16:29 48.05231 -44.69660 38076 ft 452 kts 230°
2026-04-15 16:29 48.00718 -44.76220 38079 ft 452 kts 230°
2026-04-15 16:30 47.96218 -44.82743 38082 ft 451 kts 230°
2026-04-15 16:30 47.91748 -44.89201 38090 ft 450 kts 230°
2026-04-15 16:31 47.87249 -44.95685 38107 ft 450 kts 230°
2026-04-15 16:31 47.82754 -45.02151 38103 ft 449 kts 230°
2026-04-15 16:32 47.78249 -45.08613 38095 ft 449 kts 230°
2026-04-15 16:32 47.73780 -45.15008 38097 ft 449 kts 230°
2026-04-15 16:33 47.69280 -45.21431 38092 ft 449 kts 230°
2026-04-15 16:33 47.64776 -45.27839 38104 ft 449 kts 229°
2026-04-15 16:34 47.60267 -45.34243 38101 ft 448 kts 229°
2026-04-15 16:34 47.55794 -45.40581 38111 ft 448 kts 229°
2026-04-15 16:35 47.51285 -45.46951 38319 ft 448 kts 229°
2026-04-15 16:35 47.49028 -45.50132 38577 ft 447 kts 229°
2026-04-15 16:35 47.46786 -45.53290 38826 ft 446 kts 229°
2026-04-15 16:35 47.44540 -45.56448 38993 ft 445 kts 229°
2026-04-15 16:36 47.42295 -45.59603 39148 ft 445 kts 229°
2026-04-15 16:36 47.40056 -45.62745 39282 ft 445 kts 229°
2026-04-15 16:36 47.37837 -45.65856 39413 ft 445 kts 229°
2026-04-15 16:36 47.35595 -45.68995 39550 ft 445 kts 229°
2026-04-15 16:37 47.33346 -45.72142 39688 ft 445 kts 229°
2026-04-15 16:37 47.31095 -45.75285 39815 ft 445 kts 229°
2026-04-15 16:37 47.28850 -45.78416 39931 ft 445 kts 229°
2026-04-15 16:38 47.24341 -45.84694 40065 ft 447 kts 229°
2026-04-15 16:38 47.19841 -45.90944 40125 ft 447 kts 229°
2026-04-15 16:39 47.16424 -45.95678 40125 ft 446 kts 229°
2026-04-15 16:39 47.11876 -46.01960 40143 ft 453 kts 230°
2026-04-15 16:40 47.08036 -46.07253 40150 ft 458 kts 230°
2026-04-15 16:40 47.02612 -46.14730 40150 ft 462 kts 230°
2026-04-15 16:41 46.97910 -46.21185 40147 ft 464 kts 230°
2026-04-15 16:41 46.93986 -46.26555 40144 ft 464 kts 230°
2026-04-15 16:42 46.89269 -46.32995 40148 ft 464 kts 230°
2026-04-15 16:42 46.83806 -46.40438 40149 ft 460 kts 230°
2026-04-15 16:43 46.79131 -46.46786 40160 ft 458 kts 230°
2026-04-15 16:43 46.75254 -46.52041 40155 ft 457 kts 230°
2026-04-15 16:44 46.70608 -46.58326 40170 ft 455 kts 230°
2026-04-15 16:44 46.65969 -46.64581 40150 ft 454 kts 230°
2026-04-15 16:45 46.61338 -46.70815 40168 ft 453 kts 230°
2026-04-15 16:45 46.56706 -46.77039 40171 ft 453 kts 230°
2026-04-15 16:46 46.52113 -46.83193 40175 ft 452 kts 229°
2026-04-15 16:46 46.47484 -46.89371 40179 ft 452 kts 229°
2026-04-15 16:47 46.42852 -46.95541 40180 ft 452 kts 229°
2026-04-15 16:47 46.38211 -47.01719 40180 ft 453 kts 229°
2026-04-15 16:48 46.33604 -47.07834 40183 ft 452 kts 229°
2026-04-15 16:48 46.28959 -47.13982 40189 ft 453 kts 229°
2026-04-15 16:49 46.24314 -47.20110 40187 ft 452 kts 229°
2026-04-15 16:49 46.19672 -47.26216 40186 ft 451 kts 229°
2026-04-15 16:50 46.15069 -47.32265 40187 ft 450 kts 229°
2026-04-15 16:50 46.10438 -47.38337 40186 ft 449 kts 229°
2026-04-15 16:51 46.05825 -47.44368 40191 ft 447 kts 229°
2026-04-15 16:51 46.01225 -47.50374 40192 ft 446 kts 229°
2026-04-15 16:52 45.96658 -47.56316 40190 ft 446 kts 229°
2026-04-15 16:52 45.92067 -47.62281 40197 ft 445 kts 229°
2026-04-15 16:53 45.87468 -47.68231 40196 ft 444 kts 229°
2026-04-15 16:53 45.82883 -47.74162 40200 ft 444 kts 229°
2026-04-15 16:54 45.78321 -47.80037 40200 ft 444 kts 229°
2026-04-15 16:54 45.73725 -47.85953 40202 ft 445 kts 229°
2026-04-15 16:55 45.69116 -47.91872 40209 ft 445 kts 228°
2026-04-15 16:55 45.64506 -47.97784 40200 ft 446 kts 228°
2026-04-15 16:56 45.59880 -48.03684 40215 ft 446 kts 228°
2026-04-15 16:56 45.55281 -48.09545 40213 ft 447 kts 228°
2026-04-15 16:57 45.50639 -48.15451 40212 ft 447 kts 228°
2026-04-15 16:57 45.45997 -48.21338 40214 ft 447 kts 228°
2026-04-15 16:58 45.41354 -48.27216 40213 ft 447 kts 228°
2026-04-15 16:58 45.36737 -48.33051 40217 ft 447 kts 228°
2026-04-15 16:59 45.32078 -48.38920 40220 ft 448 kts 228°
2026-04-15 16:59 45.27406 -48.44790 40221 ft 448 kts 227°
2026-04-15 17:00 45.22744 -48.50641 40218 ft 448 kts 227°
2026-04-15 17:00 45.18072 -48.56489 40228 ft 448 kts 227°
2026-04-15 17:01 45.13426 -48.62293 40228 ft 448 kts 227°
2026-04-15 17:01 45.08884 -48.67949 40235 ft 449 kts 227°
2026-04-15 17:02 45.04195 -48.73779 40223 ft 449 kts 227°
2026-04-15 17:02 44.99500 -48.79595 40237 ft 449 kts 227°
2026-04-15 17:03 44.94833 -48.85373 40240 ft 448 kts 227°
2026-04-15 17:03 44.90144 -48.91163 40236 ft 448 kts 227°
2026-04-15 17:04 44.85452 -48.96950 40233 ft 448 kts 227°
2026-04-15 17:04 44.80762 -49.02711 40234 ft 447 kts 227°
2026-04-15 17:05 44.76094 -49.08439 40244 ft 448 kts 227°
2026-04-15 17:05 44.71396 -49.14184 40242 ft 448 kts 227°
2026-04-15 17:06 44.66696 -49.19924 40247 ft 447 kts 227°
2026-04-15 17:06 44.61999 -49.25646 40243 ft 447 kts 227°
2026-04-15 17:07 44.57291 -49.31367 40246 ft 448 kts 227°
2026-04-15 17:07 44.52619 -49.37039 40250 ft 447 kts 227°
2026-04-15 17:08 44.47911 -49.42733 40246 ft 447 kts 227°
2026-04-15 17:08 44.43206 -49.48414 40249 ft 447 kts 227°
2026-04-15 17:09 44.38490 -49.54091 40250 ft 447 kts 227°
2026-04-15 17:09 44.33809 -49.59720 40252 ft 447 kts 227°
2026-04-15 17:10 44.29093 -49.65375 40247 ft 447 kts 227°
2026-04-15 17:10 44.24376 -49.71010 40250 ft 446 kts 227°
2026-04-15 17:11 44.19667 -49.76644 40248 ft 446 kts 227°
2026-04-15 17:11 44.14975 -49.82239 40250 ft 447 kts 227°
2026-04-15 17:12 44.07883 -49.90666 40253 ft 447 kts 227°
2026-04-15 17:12 44.03153 -49.96275 40256 ft 447 kts 227°
2026-04-15 17:13 43.98555 -50.02045 40255 ft 442 kts 233°
2026-04-15 17:13 43.94419 -50.08251 40249 ft 441 kts 233°
2026-04-15 17:14 43.90260 -50.14500 40260 ft 441 kts 233°
2026-04-15 17:14 43.86072 -50.20744 40261 ft 442 kts 233°
2026-04-15 17:15 43.81875 -50.26971 40262 ft 443 kts 233°
2026-04-15 17:15 43.77695 -50.33153 40253 ft 443 kts 233°
2026-04-15 17:16 43.73486 -50.39363 40262 ft 442 kts 233°
2026-04-15 17:16 43.69273 -50.45566 40260 ft 443 kts 233°
2026-04-15 17:17 43.65050 -50.51771 40255 ft 443 kts 233°
2026-04-15 17:17 43.60857 -50.57918 40256 ft 443 kts 233°
2026-04-15 17:18 43.56632 -50.64099 40250 ft 443 kts 233°
2026-04-15 17:18 43.52403 -50.70273 40248 ft 443 kts 233°
2026-04-15 17:19 43.48170 -50.76438 40251 ft 443 kts 233°
2026-04-15 17:19 43.43955 -50.82563 40250 ft 443 kts 233°
2026-04-15 17:20 43.39717 -50.88710 40246 ft 443 kts 233°
2026-04-15 17:20 43.35474 -50.94849 40247 ft 443 kts 233°
2026-04-15 17:21 43.31226 -51.00980 40246 ft 443 kts 233°
2026-04-15 17:21 43.26996 -51.07077 40243 ft 444 kts 233°
2026-04-15 17:22 43.22737 -51.13200 40253 ft 444 kts 233°
2026-04-15 17:22 43.18471 -51.19322 40251 ft 444 kts 233°
2026-04-15 17:23 43.14200 -51.25435 40246 ft 444 kts 233°
2026-04-15 17:23 43.09947 -51.31510 40244 ft 444 kts 232°
2026-04-15 17:24 43.05668 -51.37611 40242 ft 445 kts 232°
2026-04-15 17:24 43.01381 -51.43706 40244 ft 445 kts 232°
2026-04-15 17:25 42.97089 -51.49798 40245 ft 445 kts 232°
2026-04-15 17:25 42.92784 -51.55895 40242 ft 445 kts 232°
2026-04-15 17:26 42.88510 -51.61935 40247 ft 446 kts 232°
2026-04-15 17:26 42.84202 -51.68010 40243 ft 446 kts 232°
2026-04-15 17:27 42.79889 -51.74079 40245 ft 446 kts 232°
2026-04-15 17:27 42.75594 -51.80107 40237 ft 447 kts 232°
2026-04-15 17:28 42.71267 -51.86172 40240 ft 447 kts 232°
2026-04-15 17:28 42.66929 -51.92238 40236 ft 447 kts 232°
2026-04-15 17:29 42.62595 -51.98284 40233 ft 447 kts 232°
2026-04-15 17:29 42.58284 -52.04282 40229 ft 447 kts 232°
2026-04-15 17:30 42.53942 -52.10315 40235 ft 447 kts 232°
2026-04-15 17:30 42.49589 -52.16352 40227 ft 447 kts 232°
2026-04-15 17:31 42.45238 -52.22373 40225 ft 447 kts 232°
2026-04-15 17:31 42.40911 -52.28347 40225 ft 448 kts 232°
2026-04-15 17:32 42.36548 -52.34355 40227 ft 448 kts 232°
2026-04-15 17:32 42.32183 -52.40357 40239 ft 448 kts 232°
2026-04-15 17:33 42.27804 -52.46364 40237 ft 448 kts 232°
2026-04-15 17:33 42.23454 -52.52323 40228 ft 449 kts 232°
2026-04-15 17:34 42.19065 -52.58311 40222 ft 449 kts 232°
2026-04-15 17:34 42.14678 -52.64291 40220 ft 449 kts 232°
2026-04-15 17:35 42.10284 -52.70275 40219 ft 449 kts 232°
2026-04-15 17:35 42.05920 -52.76197 40220 ft 448 kts 232°
2026-04-15 17:36 42.01524 -52.82149 40217 ft 449 kts 232°
2026-04-15 17:36 41.97126 -52.88093 40214 ft 449 kts 232°
2026-04-15 17:37 41.92716 -52.94044 40217 ft 449 kts 232°
2026-04-15 17:37 41.88337 -52.99940 40214 ft 449 kts 232°
2026-04-15 17:38 41.83919 -53.05874 40213 ft 450 kts 232°
2026-04-15 17:38 41.79494 -53.11812 40214 ft 451 kts 232°
2026-04-15 17:39 41.75056 -53.17748 40211 ft 451 kts 232°
2026-04-15 17:39 41.70631 -53.23655 40207 ft 452 kts 232°
2026-04-15 17:40 41.66176 -53.29591 40206 ft 453 kts 231°
2026-04-15 17:40 41.61710 -53.35531 40194 ft 454 kts 231°
2026-04-15 17:41 41.57232 -53.41470 40198 ft 454 kts 231°
2026-04-15 17:41 41.52739 -53.47419 40194 ft 454 kts 231°
2026-04-15 17:42 41.48281 -53.53310 40196 ft 455 kts 231°
2026-04-15 17:42 41.43784 -53.59240 40192 ft 455 kts 231°
2026-04-15 17:43 41.39271 -53.65180 40189 ft 456 kts 231°
2026-04-15 17:43 41.34758 -53.71107 40186 ft 456 kts 231°
2026-04-15 17:44 41.30269 -53.76992 40187 ft 457 kts 231°
2026-04-15 17:44 41.25740 -53.82913 40181 ft 457 kts 231°
2026-04-15 17:45 41.21195 -53.88845 40182 ft 458 kts 231°
2026-04-15 17:45 41.16651 -53.94764 40177 ft 458 kts 231°
2026-04-15 17:46 41.12100 -54.00681 40172 ft 458 kts 231°
2026-04-15 17:46 41.07570 -54.06555 40170 ft 459 kts 231°
2026-04-15 17:47 41.02996 -54.12476 40174 ft 459 kts 231°
2026-04-15 17:47 40.98422 -54.18388 40165 ft 460 kts 231°
2026-04-15 17:48 40.93839 -54.24297 40161 ft 460 kts 231°
2026-04-15 17:48 40.89251 -54.30201 40153 ft 461 kts 231°
2026-04-15 17:49 40.84842 -54.35860 40156 ft 461 kts 231°
2026-04-15 17:49 40.80244 -54.41752 40155 ft 461 kts 231°
2026-04-15 17:50 40.75639 -54.47643 40152 ft 462 kts 231°
2026-04-15 17:50 40.71046 -54.53508 40146 ft 462 kts 231°
2026-04-15 17:51 40.66420 -54.59397 40164 ft 463 kts 230°
2026-04-15 17:51 40.61782 -54.65290 40159 ft 464 kts 230°
2026-04-15 17:52 40.57136 -54.71186 40155 ft 465 kts 230°
2026-04-15 17:52 40.52466 -54.77100 40146 ft 466 kts 230°
2026-04-15 17:53 40.47824 -54.82964 40145 ft 467 kts 230°
2026-04-15 17:53 40.43142 -54.88864 40147 ft 467 kts 230°
2026-04-15 17:54 40.38453 -54.94764 40142 ft 468 kts 230°
2026-04-15 17:54 40.33754 -55.00666 40143 ft 468 kts 230°
2026-04-15 17:55 40.29067 -55.06540 40141 ft 469 kts 230°
2026-04-15 17:55 40.24345 -55.12445 40145 ft 470 kts 230°
2026-04-15 17:56 40.19613 -55.18352 40139 ft 471 kts 230°
2026-04-15 17:56 40.14867 -55.24264 40136 ft 472 kts 230°
2026-04-15 17:57 40.10133 -55.30148 40132 ft 473 kts 230°
2026-04-15 17:57 40.05366 -55.36061 40131 ft 473 kts 230°
2026-04-15 17:58 40.00588 -55.41976 40128 ft 474 kts 230°
2026-04-15 17:58 39.95828 -55.47856 40125 ft 475 kts 230°
2026-04-15 17:59 39.91033 -55.53769 40120 ft 475 kts 230°
2026-04-15 17:59 39.86231 -55.59677 40134 ft 475 kts 230°
2026-04-15 18:00 39.81415 -55.65592 40139 ft 476 kts 229°
2026-04-15 18:00 39.76631 -55.71454 40128 ft 476 kts 229°
2026-04-15 18:01 39.71814 -55.77345 40139 ft 476 kts 229°
2026-04-15 18:01 39.66997 -55.83225 40138 ft 475 kts 229°
2026-04-15 18:02 39.62172 -55.89103 40140 ft 475 kts 229°
2026-04-15 18:02 39.57356 -55.94957 40147 ft 475 kts 229°
2026-04-15 18:03 39.52572 -56.00762 40145 ft 474 kts 229°
2026-04-15 18:03 39.47754 -56.06596 40143 ft 474 kts 229°
2026-04-15 18:04 39.42928 -56.12428 40145 ft 474 kts 229°
2026-04-15 18:04 39.38110 -56.18239 40154 ft 474 kts 229°
2026-04-15 18:05 39.33322 -56.24003 40155 ft 474 kts 229°
2026-04-15 18:05 39.28498 -56.29799 40156 ft 474 kts 228°
2026-04-15 18:06 39.23668 -56.35589 40156 ft 474 kts 228°
2026-04-15 18:06 39.18824 -56.41386 40162 ft 475 kts 228°
2026-04-15 18:07 39.13984 -56.47167 40162 ft 475 kts 228°
2026-04-15 18:07 39.09156 -56.52921 40165 ft 476 kts 228°
2026-04-15 18:08 39.04296 -56.58703 40168 ft 476 kts 228°
2026-04-15 18:08 38.99428 -56.64481 40167 ft 477 kts 228°
2026-04-15 18:09 38.94553 -56.70258 40165 ft 477 kts 227°
2026-04-15 18:09 38.89703 -56.75994 40171 ft 478 kts 227°
2026-04-15 18:10 38.84804 -56.81777 40176 ft 478 kts 227°
2026-04-15 18:10 38.79905 -56.87547 40174 ft 479 kts 227°
2026-04-15 18:11 38.74999 -56.93316 40170 ft 479 kts 227°
2026-04-15 18:11 38.70118 -56.99043 40181 ft 479 kts 227°
2026-04-15 18:12 38.65194 -57.04809 40184 ft 480 kts 227°
2026-04-15 18:12 38.60268 -57.10567 40178 ft 480 kts 227°
2026-04-15 18:13 38.55328 -57.16329 40186 ft 480 kts 227°
2026-04-15 18:14 38.47952 -57.24913 40189 ft 480 kts 227°
2026-04-15 18:14 38.43010 -57.30650 40190 ft 480 kts 227°
2026-04-15 18:15 38.38065 -57.36380 40192 ft 481 kts 227°
2026-04-15 18:15 38.33118 -57.42101 40194 ft 480 kts 226°
2026-04-15 18:16 38.28192 -57.47786 40201 ft 480 kts 226°
2026-04-15 18:16 38.23240 -57.53491 40200 ft 480 kts 226°
2026-04-15 18:17 38.18286 -57.59188 40199 ft 480 kts 226°
2026-04-15 18:17 38.13332 -57.64874 40200 ft 480 kts 226°
2026-04-15 18:18 38.08365 -57.70563 40204 ft 480 kts 226°
2026-04-15 18:18 38.03434 -57.76200 40203 ft 481 kts 226°
2026-04-15 18:19 37.98464 -57.81871 40206 ft 481 kts 226°
2026-04-15 18:19 37.93487 -57.87541 40206 ft 482 kts 226°
2026-04-15 18:20 37.88499 -57.93210 40224 ft 482 kts 225°
2026-04-15 18:20 37.83527 -57.98852 40206 ft 483 kts 225°
2026-04-15 18:21 37.78521 -58.04521 40205 ft 484 kts 225°
2026-04-15 18:21 37.73508 -58.10186 40223 ft 484 kts 225°
2026-04-15 18:22 37.68490 -58.15847 40218 ft 484 kts 225°
2026-04-15 18:22 37.63496 -58.21471 40222 ft 484 kts 225°
2026-04-15 18:23 37.58477 -58.27111 40223 ft 483 kts 225°
2026-04-15 18:23 37.53460 -58.32739 40228 ft 483 kts 225°
2026-04-15 18:24 37.48447 -58.38352 40222 ft 482 kts 225°
2026-04-15 18:24 37.43462 -58.43923 40228 ft 481 kts 225°
2026-04-15 18:25 37.38456 -58.49508 40233 ft 481 kts 225°
2026-04-15 18:25 37.33452 -58.55080 40231 ft 481 kts 224°
2026-04-15 18:26 37.28449 -58.60641 40237 ft 480 kts 224°
2026-04-15 18:26 37.23436 -58.66201 40234 ft 480 kts 224°
2026-04-15 18:27 37.18464 -58.71708 40240 ft 480 kts 224°
2026-04-15 18:27 37.13454 -58.77245 40242 ft 480 kts 224°
2026-04-15 18:28 37.08441 -58.82775 40239 ft 480 kts 224°
2026-04-15 18:28 37.03425 -58.88299 40241 ft 480 kts 224°
2026-04-15 18:29 36.98431 -58.93788 40247 ft 481 kts 224°
2026-04-15 18:29 36.93408 -58.99299 40246 ft 481 kts 224°
2026-04-15 18:30 36.88383 -59.04803 40250 ft 481 kts 224°
2026-04-15 18:30 36.83356 -59.10299 40251 ft 480 kts 224°
2026-04-15 18:31 36.78352 -59.15760 40252 ft 480 kts 223°
2026-04-15 18:31 36.73322 -59.21238 40255 ft 480 kts 223°
2026-04-15 18:32 36.68291 -59.26709 40259 ft 480 kts 223°
2026-04-15 18:32 36.63260 -59.32169 40257 ft 480 kts 223°
2026-04-15 18:33 36.58254 -59.37592 40258 ft 479 kts 223°
2026-04-15 18:33 36.53228 -59.43028 40258 ft 479 kts 223°
2026-04-15 18:34 36.48206 -59.48449 40256 ft 478 kts 223°
2026-04-15 18:34 36.43189 -59.53855 40258 ft 477 kts 223°
2026-04-15 18:35 36.38177 -59.59246 40258 ft 477 kts 223°
2026-04-15 18:35 36.33195 -59.64596 40257 ft 476 kts 223°
2026-04-15 18:36 36.28193 -59.69957 40264 ft 475 kts 223°
2026-04-15 18:36 36.23196 -59.75304 40269 ft 475 kts 223°
2026-04-15 18:37 36.18202 -59.80638 40264 ft 474 kts 223°
2026-04-15 18:37 36.13237 -59.85932 40268 ft 473 kts 223°
2026-04-15 18:38 36.08250 -59.91240 40268 ft 473 kts 223°
2026-04-15 18:38 36.03267 -59.96535 40269 ft 472 kts 223°
2026-04-15 18:39 35.98444 -60.02009 40274 ft 469 kts 230°
2026-04-15 18:39 35.94123 -60.07984 40271 ft 469 kts 231°
2026-04-15 18:40 35.89812 -60.14017 40271 ft 469 kts 231°
2026-04-15 18:40 35.85479 -60.20023 40273 ft 469 kts 231°
2026-04-15 18:41 35.81127 -60.26008 40271 ft 469 kts 230°
2026-04-15 18:41 35.76790 -60.31953 40271 ft 469 kts 230°
2026-04-15 18:42 35.72427 -60.37922 40273 ft 469 kts 230°
2026-04-15 18:42 35.68062 -60.43885 40274 ft 469 kts 230°
2026-04-15 18:43 35.63694 -60.49842 40278 ft 469 kts 230°
2026-04-15 18:43 35.59316 -60.55803 40276 ft 469 kts 230°
2026-04-15 18:44 35.54971 -60.61708 40275 ft 469 kts 230°
2026-04-15 18:44 35.50594 -60.67647 40274 ft 469 kts 230°
2026-04-15 18:45 35.46213 -60.73580 40275 ft 469 kts 230°
2026-04-15 18:45 35.41829 -60.79507 40275 ft 469 kts 230°
2026-04-15 18:46 35.37463 -60.85398 40272 ft 469 kts 230°
2026-04-15 18:46 35.33073 -60.91314 40270 ft 469 kts 230°
2026-04-15 18:47 35.28679 -60.97223 40272 ft 469 kts 230°
2026-04-15 18:47 35.24282 -61.03126 40281 ft 469 kts 230°
2026-04-15 18:48 35.19905 -61.08993 40279 ft 469 kts 230°
2026-04-15 18:48 35.15503 -61.14883 40283 ft 469 kts 230°
2026-04-15 18:49 35.11098 -61.20765 40284 ft 469 kts 230°
2026-04-15 18:49 35.06691 -61.26642 40279 ft 469 kts 230°
2026-04-15 18:50 35.02310 -61.32473 40285 ft 469 kts 230°
2026-04-15 18:50 34.97889 -61.38347 40281 ft 469 kts 230°
2026-04-15 18:51 34.93472 -61.44206 40280 ft 470 kts 230°
2026-04-15 18:51 34.89050 -61.50062 40282 ft 470 kts 230°
2026-04-15 18:52 34.84616 -61.55924 40282 ft 470 kts 230°
2026-04-15 18:52 34.80217 -61.61728 40282 ft 470 kts 230°
2026-04-15 18:53 34.75771 -61.67586 40280 ft 471 kts 230°
2026-04-15 18:53 34.71332 -61.73423 40284 ft 471 kts 230°
2026-04-15 18:54 34.66905 -61.79236 40281 ft 471 kts 230°
2026-04-15 18:54 34.62450 -61.85075 40275 ft 472 kts 230°
2026-04-15 18:55 34.57990 -61.90911 40275 ft 472 kts 230°
2026-04-15 18:55 34.53523 -61.96746 40277 ft 472 kts 230°
2026-04-15 18:56 34.49072 -62.02550 40281 ft 473 kts 230°
2026-04-15 18:56 34.44594 -62.08381 40282 ft 473 kts 230°
2026-04-15 18:57 34.39802 -62.13858 40279 ft 477 kts 220°
2026-04-15 18:57 34.34232 -62.18251 40284 ft 480 kts 213°
2026-04-15 18:58 34.28462 -62.22234 40278 ft 480 kts 212°
2026-04-15 18:58 34.22653 -62.26236 40276 ft 481 kts 212°
2026-04-15 18:59 34.16854 -62.30265 40277 ft 481 kts 213°
2026-04-15 18:59 34.11059 -62.34308 40270 ft 481 kts 213°
2026-04-15 19:00 34.05253 -62.38357 40276 ft 481 kts 213°
2026-04-15 19:00 33.99492 -62.42367 40273 ft 482 kts 212°
2026-04-15 19:01 33.93689 -62.46398 40275 ft 482 kts 212°
2026-04-15 19:01 33.87885 -62.50422 40269 ft 482 kts 212°
2026-04-15 19:02 33.82070 -62.54448 40260 ft 482 kts 212°
2026-04-15 19:02 33.76265 -62.58461 40263 ft 481 kts 212°
2026-04-15 19:03 33.70500 -62.62441 40260 ft 481 kts 212°
2026-04-15 19:03 33.64695 -62.66441 40261 ft 481 kts 212°
2026-04-15 19:04 33.58892 -62.70434 40259 ft 481 kts 212°
2026-04-15 19:04 33.53079 -62.74427 40267 ft 481 kts 212°
2026-04-15 19:05 33.47315 -62.78380 40272 ft 481 kts 212°
2026-04-15 19:05 33.41507 -62.82357 40244 ft 481 kts 212°
2026-04-15 19:06 33.35701 -62.86327 40249 ft 481 kts 212°
2026-04-15 19:06 33.29886 -62.90297 40253 ft 481 kts 212°
2026-04-15 19:07 33.24118 -62.94229 40256 ft 480 kts 212°
2026-04-15 19:07 33.18313 -62.98180 40251 ft 481 kts 212°
2026-04-15 19:08 33.12505 -63.02127 40246 ft 480 kts 212°
2026-04-15 19:08 33.06689 -63.06073 40250 ft 480 kts 212°
2026-04-15 19:09 33.00921 -63.09980 40244 ft 480 kts 212°
2026-04-15 19:09 32.95114 -63.13909 40245 ft 480 kts 212°
2026-04-15 19:10 32.89306 -63.17831 40242 ft 480 kts 212°
2026-04-15 19:10 32.83496 -63.21750 40237 ft 480 kts 212°
2026-04-15 19:11 32.77675 -63.25669 40234 ft 480 kts 212°
2026-04-15 19:11 32.71900 -63.29552 40231 ft 480 kts 212°
2026-04-15 19:12 32.66084 -63.33457 40238 ft 480 kts 212°
2026-04-15 19:12 32.60265 -63.37357 40234 ft 480 kts 212°
2026-04-15 19:13 32.54436 -63.41258 40229 ft 481 kts 212°
2026-04-15 19:13 32.48654 -63.45123 40228 ft 481 kts 211°
2026-04-15 19:14 32.42831 -63.49008 40229 ft 481 kts 211°
2026-04-15 19:14 32.37007 -63.52889 40231 ft 481 kts 211°
2026-04-15 19:15 32.31172 -63.56771 40224 ft 481 kts 211°
2026-04-15 19:15 32.25383 -63.60617 40225 ft 481 kts 211°
2026-04-15 19:16 32.19554 -63.64484 40224 ft 481 kts 211°
2026-04-15 19:16 32.13722 -63.68346 40224 ft 481 kts 211°
2026-04-15 19:17 32.07879 -63.72210 40220 ft 481 kts 211°
2026-04-15 19:17 32.02082 -63.76039 40220 ft 481 kts 211°
2026-04-15 19:18 31.96244 -63.79889 40216 ft 481 kts 211°
2026-04-15 19:18 31.87476 -63.85660 40214 ft 481 kts 211°
2026-04-15 19:19 31.81631 -63.89500 40215 ft 481 kts 211°
2026-04-15 19:19 31.75822 -63.93311 40209 ft 482 kts 211°
2026-04-15 19:20 31.69972 -63.97144 40213 ft 482 kts 211°
2026-04-15 19:20 31.64109 -64.00979 40213 ft 482 kts 211°
2026-04-15 19:21 31.58254 -64.04804 40209 ft 482 kts 211°
2026-04-15 19:21 31.52397 -64.08624 40211 ft 482 kts 211°
2026-04-15 19:22 31.46567 -64.12420 40206 ft 482 kts 211°
2026-04-15 19:22 31.40707 -64.16232 40206 ft 482 kts 211°
2026-04-15 19:23 31.34846 -64.20038 40205 ft 482 kts 211°
2026-04-15 19:23 31.28982 -64.23841 40204 ft 482 kts 211°
2026-04-15 19:24 31.23117 -64.27639 40202 ft 482 kts 211°
2026-04-15 19:24 31.18324 -64.30739 40202 ft 482 kts 211°
2026-04-15 19:25 31.11613 -64.35073 40200 ft 482 kts 211°
2026-04-15 19:25 31.05742 -64.38859 40200 ft 482 kts 211°
2026-04-15 19:26 30.99899 -64.42621 40196 ft 482 kts 211°
2026-04-15 19:26 30.94024 -64.46399 40198 ft 482 kts 211°
2026-04-15 19:27 30.88148 -64.50172 40198 ft 483 kts 211°
2026-04-15 19:27 30.82270 -64.53941 40195 ft 483 kts 211°
2026-04-15 19:28 30.76419 -64.57687 40191 ft 483 kts 211°
2026-04-15 19:28 30.70537 -64.61448 40193 ft 483 kts 211°
2026-04-15 19:29 30.64652 -64.65205 40193 ft 483 kts 210°
2026-04-15 19:29 30.58766 -64.68958 40192 ft 483 kts 210°
2026-04-15 19:30 30.52907 -64.72689 40194 ft 483 kts 210°
2026-04-15 19:30 30.47015 -64.76435 40189 ft 483 kts 210°
2026-04-15 19:31 30.41122 -64.80177 40189 ft 483 kts 210°
2026-04-15 19:31 30.35226 -64.83916 40185 ft 483 kts 210°
2026-04-15 19:32 30.29366 -64.87626 40184 ft 483 kts 210°
2026-04-15 19:32 30.23456 -64.91363 40183 ft 484 kts 210°
2026-04-15 19:33 30.17554 -64.95090 40185 ft 484 kts 210°
2026-04-15 19:33 30.11647 -64.98814 40185 ft 484 kts 210°
2026-04-15 19:34 30.06734 -65.01909 40179 ft 484 kts 210°
2026-04-15 19:34 29.99859 -65.06233 40178 ft 484 kts 210°
2026-04-15 19:35 29.93944 -65.09947 40179 ft 484 kts 210°
2026-04-15 19:35 29.89021 -65.13035 40179 ft 484 kts 210°
2026-04-15 19:36 29.82145 -65.17341 40175 ft 485 kts 210°
2026-04-15 19:36 29.76212 -65.21052 40174 ft 485 kts 210°
2026-04-15 19:37 29.70288 -65.24752 40173 ft 485 kts 210°
2026-04-15 19:37 29.65356 -65.27828 40173 ft 485 kts 210°
2026-04-15 19:38 29.59433 -65.31518 40170 ft 485 kts 210°
2026-04-15 19:38 29.53492 -65.35214 40169 ft 485 kts 210°
2026-04-15 19:39 29.47597 -65.38877 40168 ft 485 kts 210°
2026-04-15 19:39 29.42323 -65.43585 40167 ft 481 kts 230°
2026-04-15 19:40 29.38632 -65.49900 40170 ft 477 kts 244°
2026-04-15 19:40 29.35604 -65.56683 40168 ft 478 kts 245°
2026-04-15 19:41 29.32601 -65.63417 40171 ft 478 kts 244°
2026-04-15 19:41 29.29526 -65.70173 40169 ft 479 kts 244°
2026-04-15 19:42 29.26419 -65.76919 40164 ft 479 kts 244°
2026-04-15 19:42 29.23302 -65.83663 40165 ft 479 kts 244°
2026-04-15 19:43 29.20197 -65.90373 40168 ft 480 kts 244°
2026-04-15 19:43 29.17074 -65.97116 40160 ft 480 kts 244°
2026-04-15 19:44 29.13944 -66.03861 40160 ft 480 kts 244°
2026-04-15 19:44 29.10813 -66.10600 40173 ft 480 kts 244°
2026-04-15 19:45 29.07678 -66.17335 40171 ft 480 kts 244°
2026-04-15 19:45 29.04538 -66.24069 40171 ft 480 kts 244°
2026-04-15 19:46 29.01418 -66.30750 40159 ft 480 kts 244°
2026-04-15 19:46 28.98268 -66.37483 40168 ft 480 kts 244°
2026-04-15 19:47 28.95119 -66.44202 40160 ft 480 kts 244°
2026-04-15 19:47 28.91967 -66.50917 40161 ft 480 kts 244°
2026-04-15 19:48 28.88832 -66.57585 40163 ft 480 kts 244°
2026-04-15 19:48 28.85666 -66.64307 40159 ft 480 kts 244°